When you browse on this site, cookies collect data to enhance your experience and personalize the content and advertising you see.
Visit our Privacy Policy to learn more. By continuing to use the site, you agree to this use of cookies and data.

Hourly Weather Ischgl

Today, 7 July, Tuesday

Time Temperature Precipitation Wind Pressure Humidity
00:00 +1°C° 0 mm 2 mps 574 mmHg 95%
01:00 0°C° 0 mm 3 mps 574 mmHg 98%
02:00 +1°C° 0 mm 2 mps 574 mmHg 97%
03:00 +1°C° 0 mm 2 mps 574 mmHg 96%
04:00 +1°C° 0 mm 2 mps 574 mmHg 95%
05:00 +1°C° 0 mm 2 mps 575 mmHg 90%
06:00 +2°C° 0 mm 2 mps 575 mmHg 85%
07:00 +2°C° 0 mm 2 mps 576 mmHg 80%
08:00 +5°C° 0 mm 1 mps 576 mmHg 69%
09:00 +7°C° 0 mm 1 mps 577 mmHg 57%
10:00 +10°C° 0 mm 1 mps 578 mmHg 45%
11:00 +11°C° 0 mm 1 mps 579 mmHg 41%
12:00 +12°C° 0 mm 2 mps 579 mmHg 37%
13:00 +14°C° 0 mm 2 mps 580 mmHg 32%
14:00 +14°C° 0 mm 2 mps 580 mmHg 33%
15:00 +14°C° 0 mm 2 mps 580 mmHg 33%
16:00 +14°C° 0 mm 2 mps 580 mmHg 34%
17:00 +13°C° 0 mm 2 mps 579 mmHg 44%
18:00 +12°C° 0 mm 2 mps 579 mmHg 53%
19:00 +10°C° 0 mm 2 mps 578 mmHg 63%
20:00 +8°C° 0 mm 1 mps 577 mmHg 73%
21:00 +6°C° 0 mm 1 mps 576 mmHg 83%
22:00 +3°C° 0 mm 0 mps 575 mmHg 93%
23:00 +3°C° 0 mm 0 mps 575 mmHg 93%

Tomorrow, 8 July, Wednesday

Time Temperature Precipitation Wind Pressure Humidity
00:00 +3°C° 0 mm 0 mps 575 mmHg 93%
01:00 +3°C° 0 mm 1 mps 575 mmHg 93%
02:00 +2°C° 0 mm 0 mps 575 mmHg 91%
03:00 +2°C° 0 mm 0 mps 574 mmHg 90%
04:00 +2°C° 0 mm 0 mps 574 mmHg 89%
05:00 +4°C° 0 mm 0 mps 575 mmHg 81%
06:00 +6°C° 0 mm 0 mps 576 mmHg 73%
07:00 +8°C° 0 mm 0 mps 577 mmHg 65%
08:00 +11°C° 0 mm 1 mps 578 mmHg 58%
09:00 +13°C° 0 mm 1 mps 579 mmHg 50%
10:00 +14°C° 0 mm 1 mps 580 mmHg 42%
11:00 +15°C° 0 mm 2 mps 580 mmHg 40%
12:00 +16°C° 0 mm 2 mps 581 mmHg 38%
13:00 +17°C° 0 mm 2 mps 581 mmHg 36%
14:00 +17°C° 0 mm 2 mps 581 mmHg 37%
15:00 +17°C° 0 mm 2 mps 581 mmHg 39%
16:00 +17°C° 0 mm 3 mps 581 mmHg 40%
17:00 +15°C° 0 mm 2 mps 580 mmHg 48%
18:00 +14°C° 0 mm 2 mps 580 mmHg 57%
19:00 +13°C° 0 mm 2 mps 579 mmHg 65%
20:00 +10°C° 0 mm 2 mps 578 mmHg 73%
21:00 +8°C° 0 mm 1 mps 578 mmHg 81%
22:00 +6°C° 0 mm 1 mps 577 mmHg 89%
23:00 +5°C° 0 mm 0 mps 577 mmHg 89%

Day after tomorrow, 9 July, Thursday

Time Temperature Precipitation Wind Pressure Humidity
00:00 +5°C° 0 mm 0 mps 577 mmHg 89%
01:00 +5°C° 0 mm 0 mps 577 mmHg 88%
02:00 +5°C° 0 mm 0 mps 577 mmHg 88%
03:00 +5°C° 0 mm 0 mps 577 mmHg 87%
04:00 +4°C° 0 mm 0 mps 576 mmHg 86%
05:00 +6°C° 0 mm 0 mps 577 mmHg 77%
06:00 +8°C° 0 mm 0 mps 578 mmHg 68%
07:00 +10°C° 0 mm 0 mps 579 mmHg 59%
08:00 +12°C° 0 mm 1 mps 580 mmHg 53%
09:00 +14°C° 0 mm 1 mps 581 mmHg 47%
10:00 +15°C° 0 mm 1 mps 581 mmHg 40%
11:00 +16°C° 0 mm 1 mps 582 mmHg 38%
12:00 +18°C° 0 mm 1 mps 582 mmHg 36%
13:00 +19°C° 0 mm 1 mps 582 mmHg 33%
14:00 +18°C° 0 mm 2 mps 582 mmHg 35%
15:00 +18°C° 0 mm 2 mps 582 mmHg 36%
16:00 +18°C° 0 mm 2 mps 582 mmHg 37%
17:00 +17°C° 0.1 mm 2 mps 581 mmHg 47%
18:00 +15°C° 0.1 mm 2 mps 581 mmHg 57%
19:00 +14°C° 0.1 mm 1 mps 580 mmHg 67%
20:00 +12°C° 0 mm 1 mps 579 mmHg 74%
21:00 +10°C° 0 mm 1 mps 578 mmHg 81%
22:00 +7°C° 0 mm 0 mps 577 mmHg 89%
23:00 +7°C° 0 mm 0 mps 577 mmHg 88%

10 July, Friday

Time Temperature Precipitation Wind Pressure Humidity
00:00 +8°C° 0 mm 1 mps 577 mmHg 88%
01:00 +8°C° 0 mm 1 mps 577 mmHg 87%
02:00 +8°C° 0 mm 1 mps 576 mmHg 87%
03:00 +7°C° 0 mm 1 mps 576 mmHg 88%
04:00 +7°C° 0 mm 1 mps 576 mmHg 88%
05:00 +9°C° 0 mm 1 mps 577 mmHg 82%
06:00 +11°C° 0 mm 1 mps 577 mmHg 76%
07:00 +11°C° 0 mm 0 mps 578 mmHg 71%
08:00 +13°C° 0 mm 0 mps 579 mmHg 64%
09:00 +16°C° 0 mm 1 mps 579 mmHg 58%
10:00 +18°C° 0 mm 1 mps 580 mmHg 51%
11:00 +19°C° 0.2 mm 1 mps 580 mmHg 50%
12:00 +19°C° 0.2 mm 1 mps 580 mmHg 49%
13:00 +19°C° 0.2 mm 2 mps 580 mmHg 47%
14:00 +17°C° 1.1 mm 2 mps 579 mmHg 56%
15:00 +16°C° 1.1 mm 2 mps 579 mmHg 64%
16:00 +15°C° 1.1 mm 2 mps 578 mmHg 72%
17:00 +13°C° 2.7 mm 2 mps 578 mmHg 80%
18:00 +12°C° 2.7 mm 2 mps 577 mmHg 87%
19:00 +10°C° 2.7 mm 2 mps 577 mmHg 95%
20:00 +9°C° 1.6 mm 2 mps 577 mmHg 95%
21:00 +8°C° 1.6 mm 2 mps 577 mmHg 96%
22:00 +8°C° 1.6 mm 2 mps 577 mmHg 97%
23:00 +8°C° 0.7 mm 2 mps 576 mmHg 97%

11 July, Saturday

Time Temperature Precipitation Wind Pressure Humidity
00:00 +8°C° 0.7 mm 1 mps 576 mmHg 97%
01:00 +8°C° 0.7 mm 1 mps 576 mmHg 97%
02:00 +8°C° 0.6 mm 1 mps 576 mmHg 97%
03:00 +6°C° 0.6 mm 2 mps 576 mmHg 97%
04:00 +6°C° 0.6 mm 2 mps 576 mmHg 97%
05:00 +6°C° 0.2 mm 2 mps 576 mmHg 96%
06:00 +6°C° 0.2 mm 2 mps 576 mmHg 95%
07:00 +6°C° 0.2 mm 2 mps 576 mmHg 94%
08:00 +6°C° 0.1 mm 2 mps 577 mmHg 92%
09:00 +7°C° 0.1 mm 2 mps 577 mmHg 89%
10:00 +7°C° 0.1 mm 2 mps 577 mmHg 86%
11:00 +8°C° 0.1 mm 2 mps 578 mmHg 80%
12:00 +9°C° 0.1 mm 2 mps 578 mmHg 74%
13:00 +10°C° 0.1 mm 2 mps 579 mmHg 68%
14:00 +10°C° 0.2 mm 3 mps 579 mmHg 67%
15:00 +10°C° 0.2 mm 3 mps 579 mmHg 67%
16:00 +10°C° 0.2 mm 3 mps 579 mmHg 67%
17:00 +9°C° 0.1 mm 3 mps 579 mmHg 70%
18:00 +9°C° 0.1 mm 2 mps 579 mmHg 73%
19:00 +8°C° 0.1 mm 2 mps 579 mmHg 76%
20:00 +6°C° 0 mm 2 mps 578 mmHg 82%
21:00 +6°C° 0 mm 1 mps 578 mmHg 88%
22:00 +4°C° 0 mm 1 mps 578 mmHg 94%
23:00 +4°C° 0 mm 1 mps 577 mmHg 94%

12 July, Sunday

Time Temperature Precipitation Wind Pressure Humidity
00:00 +2°C° 0 mm 0 mps 577 mmHg 94%
01:00 +2°C° 0 mm 0 mps 577 mmHg 94%
02:00 +1°C° 0 mm 0 mps 576 mmHg 94%
03:00 +2°C° 0 mm 1 mps 576 mmHg 93%
04:00 +2°C° 0 mm 1 mps 576 mmHg 93%
05:00 +4°C° 0 mm 1 mps 577 mmHg 86%
06:00 +6°C° 0 mm 1 mps 578 mmHg 80%
07:00 +8°C° 0 mm 1 mps 580 mmHg 73%
08:00 +10°C° 0 mm 1 mps 581 mmHg 65%
09:00 +12°C° 0 mm 1 mps 582 mmHg 58%
10:00 +14°C° 0 mm 1 mps 582 mmHg 50%
11:00 +15°C° 0 mm 1 mps 583 mmHg 46%
12:00 +16°C° 0 mm 1 mps 583 mmHg 43%
13:00 +17°C° 0 mm 2 mps 584 mmHg 39%
14:00 +17°C° 0 mm 2 mps 583 mmHg 40%
15:00 +17°C° 0 mm 2 mps 583 mmHg 42%
16:00 +17°C° 0 mm 2 mps 583 mmHg 43%
17:00 +15°C° 0 mm 2 mps 583 mmHg 53%
18:00 +14°C° 0 mm 2 mps 582 mmHg 62%
19:00 +13°C° 0 mm 2 mps 581 mmHg 71%
20:00 +11°C° 0 mm 1 mps 580 mmHg 79%
21:00 +8°C° 0 mm 1 mps 579 mmHg 86%
22:00 +5°C° 0 mm 0 mps 579 mmHg 94%
23:00 +5°C° 0 mm 0 mps 578 mmHg 94%
Show more